| time (UTC) | temp F | wind direction | speed knots | gust knots | rain 1hr in | rain 24hr in | rain mn in | humidity % | barometer mb |
| 20260506013004 | 57 | 102 | 2.6 | 10.4 | 0.00 | 0.00 | 0.00 | 81 | 1030.2 |
| 20260506012004 | 56 | 93 | 1.7 | 7.8 | 0.00 | 0.00 | 0.00 | 84 | 1030.2 |
| 20260506011003 | 55 | 105 | 1.7 | 7.8 | 0.00 | 0.00 | 0.00 | 85 | 1030.1 |
| 20260506010005 | 54 | 188 | 1.7 | 5.2 | 0.00 | 0.00 | 0.00 | 86 | 1030.2 |
| 20260506005024 | 54 | 212 | 1.7 | 7.0 | 0.00 | 0.00 | 0.00 | 87 | 1030.1 |
| 20260506004003 | 53 | 169 | 1.7 | 4.3 | 0.00 | 0.00 | 0.00 | 87 | 1030.0 |
| 20260506003004 | 52 | 90 | 0.9 | 6.1 | 0.00 | 0.00 | 0.00 | 88 | 1029.8 |
| 20260506002025 | 52 | 191 | 0.9 | 6.1 | 0.00 | 0.00 | 0.00 | 88 | 1029.7 |
| 20260506001004 | 51 | 76 | 0.9 | 3.5 | 0.00 | 0.01 | 0.00 | 88 | 1029.6 |
| 20260506000004 | 50 | 167 | 0.9 | 4.3 | 0.00 | 0.01 | 0.00 | 88 | 1029.5 |
| 20260505235004 | 50 | 209 | 0.9 | 3.5 | 0.00 | 0.01 | 0.00 | 88 | 1029.4 |
| 20260505234004 | 50 | 237 | 0.9 | 4.3 | 0.00 | 0.01 | 0.00 | 88 | 1029.3 |
| 20260505233004 | 50 | 246 | 0.9 | 2.6 | 0.00 | 0.01 | 0.00 | 87 | 1029.2 |
| 20260505232004 | 50 | 354 | 0.9 | 3.5 | 0.00 | 0.01 | 0.00 | 87 | 1029.1 |
| 20260505231004 | 50 | 42 | 0.9 | 2.6 | 0.00 | 0.01 | 0.00 | 87 | 1029.0 |
| 20260505230025 | 50 | 67 | 0.9 | 2.6 | 0.00 | 0.01 | 0.00 | 87 | 1028.9 |
| 20260505225004 | 50 | 3 | 0.9 | 3.5 | 0.00 | 0.01 | 0.00 | 87 | 1028.9 |
| 20260505224004 | 50 | 93 | 0.9 | 4.3 | 0.00 | 0.01 | 0.00 | 86 | 1028.8 |
| 20260505223025 | 50 | 61 | 0.9 | 3.5 | 0.00 | 0.01 | 0.00 | 86 | 1028.7 |
| 20260505222004 | 50 | 82 | 0.9 | 6.1 | 0.00 | 0.01 | 0.00 | 86 | 1028.6 |
| 20260505221025 | 50 | 45 | 0.9 | 3.5 | 0.00 | 0.01 | 0.00 | 86 | 1028.4 |
| 20260505220004 | 50 | 50 | 0.9 | 5.2 | 0.00 | 0.01 | 0.00 | 85 | 1028.3 |
| 20260505215004 | 50 | 352 | 0.9 | 5.2 | 0.00 | 0.01 | 0.00 | 85 | 1028.3 |
| 20260505214004 | 50 | 116 | 0.9 | 7.0 | 0.00 | 0.01 | 0.00 | 85 | 1028.2 |
| 20260505213004 | 51 | 272 | 0.9 | 3.5 | 0.00 | 0.01 | 0.00 | 85 | 1028.2 |
| 20260505212004 | 51 | 88 | 0.9 | 2.6 | 0.00 | 0.01 | 0.00 | 85 | 1028.2 |
| 20260505211004 | 51 | 70 | 0.0 | 2.6 | 0.00 | 0.01 | 0.00 | 85 | 1028.2 |
| 20260505210004 | 51 | 33 | 0.9 | 2.6 | 0.00 | 0.01 | 0.00 | 84 | 1028.1 |
| 20260505205003 | 51 | 41 | 0.9 | 5.2 | 0.00 | 0.01 | 0.00 | 84 | 1028.0 |
| 20260505204003 | 51 | 265 | 0.9 | 2.6 | 0.00 | 0.01 | 0.00 | 84 | 1027.9 |
| 20260505203003 | 51 | 246 | 0.9 | 5.2 | 0.00 | 0.01 | 0.00 | 84 | 1027.9 |
| 20260505202004 | 51 | 344 | 0.9 | 5.2 | 0.00 | 0.01 | 0.00 | 83 | 1027.8 |
| 20260505201003 | 51 | 332 | 0.9 | 1.7 | 0.00 | 0.01 | 0.00 | 83 | 1027.8 |
| 20260505200004 | 52 | 3 | 0.9 | 5.2 | 0.00 | 0.01 | 0.00 | 82 | 1027.8 |
| 20260505195003 | 52 | 323 | 0.9 | 6.1 | 0.00 | 0.01 | 0.00 | 82 | 1027.7 |
| 20260505194003 | 52 | 273 | 0.9 | 3.5 | 0.00 | 0.01 | 0.00 | 82 | 1027.8 |
| 20260505193003 | 52 | 5 | 0.9 | 3.5 | 0.00 | 0.01 | 0.00 | 81 | 1027.8 |
| 20260505192004 | 52 | 174 | 0.9 | 5.2 | 0.00 | 0.01 | 0.00 | 81 | 1027.7 |
| 20260505191004 | 52 | 343 | 0.9 | 3.5 | 0.00 | 0.01 | 0.00 | 80 | 1027.7 |
| 20260505190004 | 52 | 96 | 0.9 | 2.6 | 0.00 | 0.01 | 0.00 | 80 | 1027.6 |
| 20260505185004 | 52 | 124 | 0.9 | 3.5 | 0.00 | 0.01 | 0.00 | 79 | 1027.5 |
| 20260505184004 | 53 | 67 | 0.9 | 6.1 | 0.00 | 0.01 | 0.00 | 79 | 1027.5 |
| 20260505183004 | 53 | 81 | 0.9 | 3.5 | 0.00 | 0.01 | 0.00 | 78 | 1027.5 |
| 20260505182003 | 53 | 52 | 0.9 | 2.6 | 0.00 | 0.01 | 0.00 | 78 | 1027.5 |
| 20260505181024 | 53 | 26 | 0.9 | 3.5 | 0.00 | 0.01 | 0.00 | 78 | 1027.4 |
| 20260505180004 | 53 | 90 | 0.9 | 3.5 | 0.00 | 0.01 | 0.00 | 77 | 1027.4 |
| 20260505175003 | 53 | 135 | 0.9 | 7.0 | 0.00 | 0.01 | 0.00 | 77 | 1027.3 |
| 20260505174003 | 53 | 318 | 0.9 | 3.5 | 0.00 | 0.01 | 0.00 | 77 | 1027.3 |
| 20260505173004 | 53 | 324 | 0.9 | 4.3 | 0.00 | 0.01 | 0.00 | 77 | 1027.3 |
| 20260505172025 | 53 | 340 | 0.9 | 4.3 | 0.00 | 0.01 | 0.00 | 77 | 1027.3 |
| 20260505171003 | 54 | 1 | 0.9 | 3.5 | 0.00 | 0.01 | 0.00 | 77 | 1027.2 |
| 20260505170003 | 54 | 30 | 0.9 | 2.6 | 0.00 | 0.01 | 0.00 | 77 | 1027.1 |
| 20260505165003 | 54 | 28 | 0.9 | 2.6 | 0.00 | 0.01 | 0.00 | 77 | 1027.2 |
| 20260505164004 | 54 | 321 | 1.7 | 4.3 | 0.00 | 0.01 | 0.00 | 77 | 1027.0 |
| 20260505163004 | 54 | 349 | 0.9 | 4.3 | 0.00 | 0.01 | 0.00 | 77 | 1027.0 |
| 20260505162003 | 54 | 277 | 0.9 | 2.6 | 0.00 | 0.01 | 0.00 | 77 | 1027.0 |
| 20260505161004 | 54 | 262 | 0.0 | 2.6 | 0.00 | 0.01 | 0.00 | 77 | 1026.9 |
| 20260505153004 | 54 | 45 | 1.7 | 3.5 | 0.00 | 0.01 | 0.01 | 77 | 1026.9 |
| 20260505152004 | 54 | 38 | 0.9 | 4.3 | 0.00 | 0.01 | 0.01 | 77 | 1026.9 |
| 20260505151004 | 54 | 22 | 0.9 | 3.5 | 0.00 | 0.01 | 0.01 | 77 | 1026.8 |
| 20260505125004 | 54 | 22 | 0.9 | 2.6 | 0.00 | 0.01 | 0.01 | 83 | 1026.5 |
| 20260505124004 | 54 | 22 | 0.9 | 1.7 | 0.00 | 0.01 | 0.01 | 84 | 1026.5 |
| 20260505123004 | 54 | 22 | 0.9 | 1.7 | 0.00 | 0.01 | 0.01 | 84 | 1026.5 |
| 20260505122004 | 54 | 22 | 0.0 | 1.7 | 0.00 | 0.01 | 0.01 | 84 | 1026.5 |
| 20260505121004 | 54 | 22 | 1.7 | 2.6 | 0.00 | 0.01 | 0.01 | 83 | 1026.5 |
| 20260505120004 | 55 | 22 | 1.7 | 2.6 | 0.00 | 0.01 | 0.01 | 82 | 1026.4 |
| 20260505115004 | 55 | 21 | 1.7 | 3.5 | 0.00 | 0.01 | 0.01 | 81 | 1026.3 |
| 20260505114025 | 56 | 20 | 1.7 | 3.5 | 0.00 | 0.01 | 0.01 | 81 | 1026.2 |
| 20260505113025 | 56 | 21 | 1.7 | 3.5 | 0.00 | 0.01 | 0.01 | 79 | 1026.2 |
| 20260505112003 | 57 | 21 | 1.7 | 3.5 | 0.00 | 0.01 | 0.01 | 78 | 1026.2 |
| 20260505111003 | 58 | 21 | 0.9 | 3.5 | 0.00 | 0.01 | 0.01 | 77 | 1026.1 |
| 20260505102004 | 61 | 20 | 0.9 | 2.6 | 0.00 | 0.01 | 0.01 | 71 | 1025.6 |
| 20260505101003 | 62 | 21 | 1.7 | 3.5 | 0.00 | 0.01 | 0.01 | 69 | 1025.5 |
| 20260505100004 | 63 | 165 | 1.7 | 5.2 | 0.00 | 0.01 | 0.01 | 68 | 1025.3 |
| 20260505095004 | 64 | 170 | 0.9 | 1.7 | 0.00 | 0.01 | 0.01 | 67 | 1025.2 |
| 20260505094004 | 65 | 170 | 0.0 | 1.7 | 0.00 | 0.01 | 0.01 | 65 | 1025.2 |
| 20260505093025 | 66 | 170 | 0.9 | 1.7 | 0.00 | 0.01 | 0.01 | 64 | 1025.1 |
| 20260505092025 | 67 | 170 | 0.9 | 1.7 | 0.00 | 0.01 | 0.01 | 60 | 1025.1 |
| 20260505091003 | 68 | 170 | 0.9 | 1.7 | 0.00 | 0.01 | 0.01 | 58 | 1025.0 |
| 20260505090004 | 70 | 170 | 0.0 | 3.5 | 0.00 | 0.01 | 0.01 | 56 | 1024.9 |
| 20260505085025 | 70 | 170 | 0.0 | 1.7 | 0.00 | 0.01 | 0.01 | 54 | 1025.0 |
| 20260505084004 | 70 | 172 | 0.9 | 5.2 | 0.00 | 0.01 | 0.01 | 53 | 1024.9 |
| 20260505083004 | 70 | 151 | 0.9 | 4.3 | 0.00 | 0.01 | 0.01 | 53 | 1024.9 |
| 20260505082003 | 71 | 153 | 0.9 | 3.5 | 0.00 | 0.01 | 0.01 | 52 | 1024.9 |
| 20260505081003 | 71 | 191 | 0.9 | 4.3 | 0.00 | 0.01 | 0.01 | 51 | 1024.8 |
| 20260505080024 | 71 | 166 | 1.7 | 4.3 | 0.00 | 0.01 | 0.01 | 50 | 1024.8 |
| 20260505075003 | 71 | 207 | 0.9 | 3.5 | 0.00 | 0.01 | 0.01 | 50 | 1024.8 |
| 20260505074003 | 71 | 176 | 2.6 | 7.0 | 0.00 | 0.01 | 0.01 | 50 | 1024.8 |
| 20260505073003 | 72 | 124 | 1.7 | 7.0 | 0.00 | 0.01 | 0.01 | 50 | 1024.7 |
| 20260505072004 | 72 | 56 | 1.7 | 4.3 | 0.00 | 0.01 | 0.01 | 49 | 1024.8 |
| 20260505071004 | 72 | 106 | 0.9 | 5.2 | 0.00 | 0.01 | 0.01 | 48 | 1024.8 |
| 20260505070004 | 72 | 129 | 1.7 | 6.1 | 0.00 | 0.01 | 0.01 | 47 | 1024.8 |
| 20260505065004 | 72 | 69 | 0.9 | 6.1 | 0.00 | 0.01 | 0.01 | 49 | 1024.8 |
| 20260505064004 | 72 | 60 | 1.7 | 3.5 | 0.00 | 0.01 | 0.01 | 50 | 1024.8 |
| 20260505063003 | 72 | 43 | 1.7 | 5.2 | 0.00 | 0.01 | 0.01 | 49 | 1024.7 |
| 20260505062003 | 72 | 62 | 1.7 | 4.3 | 0.00 | 0.01 | 0.01 | 51 | 1024.7 |
| 20260505061004 | 72 | 67 | 0.9 | 7.8 | 0.00 | 0.01 | 0.01 | 51 | 1024.8 |
| 20260505060004 | 72 | 45 | 1.7 | 6.1 | 0.00 | 0.01 | 0.01 | 50 | 1024.8 |
| 20260505055004 | 72 | 50 | 1.7 | 7.0 | 0.00 | 0.01 | 0.01 | 51 | 1024.9 |
| 20260505054004 | 71 | 49 | 1.7 | 4.3 | 0.00 | 0.01 | 0.01 | 51 | 1024.9 |
| 20260505053004 | 70 | 49 | 1.7 | 3.5 | 0.00 | 0.01 | 0.01 | 52 | 1025.0 |
| 20260505052004 | 70 | 80 | 0.9 | 3.5 | 0.00 | 0.01 | 0.01 | 54 | 1025.1 |
| 20260505051004 | 70 | 89 | 0.9 | 3.5 | 0.00 | 0.01 | 0.01 | 54 | 1025.2 |
| 20260505041004 | 67 | 86 | 1.7 | 3.5 | 0.00 | 0.01 | 0.01 | 62 | 1026.1 |
| 20260505040004 | 67 | 127 | 1.7 | 7.0 | 0.00 | 0.01 | 0.01 | 62 | 1026.3 |
| 20260505035004 | 66 | 180 | 1.7 | 4.3 | 0.00 | 0.01 | 0.01 | 63 | 1026.5 |
| 20260505034004 | 66 | 334 | 1.7 | 4.3 | 0.00 | 0.01 | 0.01 | 64 | 1026.5 |
| 20260505033004 | 66 | 95 | 2.6 | 7.0 | 0.00 | 0.01 | 0.01 | 64 | 1026.7 |
| 20260505032004 | 65 | 130 | 1.7 | 6.1 | 0.00 | 0.01 | 0.01 | 66 | 1026.8 |
| 20260505031025 | 65 | 144 | 1.7 | 4.3 | 0.00 | 0.01 | 0.01 | 67 | 1026.8 |
| 20260505030004 | 65 | 103 | 0.9 | 5.2 | 0.00 | 0.01 | 0.01 | 67 | 1026.8 |
| 20260505025004 | 64 | 92 | 1.7 | 6.1 | 0.00 | 0.01 | 0.01 | 69 | 1026.8 |
| 20260505024025 | 63 | 97 | 0.9 | 7.8 | 0.00 | 0.01 | 0.01 | 70 | 1026.9 |
| 20260505023004 | 62 | 137 | 0.9 | 4.3 | 0.00 | 0.01 | 0.01 | 72 | 1026.9 |
| 20260505022003 | 61 | 110 | 1.7 | 5.2 | 0.00 | 0.01 | 0.01 | 75 | 1026.9 |
| 20260505021004 | 60 | 114 | 1.7 | 5.2 | 0.00 | 0.01 | 0.01 | 79 | 1026.9 |
| 20260505020004 | 58 | 109 | 0.9 | 4.3 | 0.00 | 0.01 | 0.01 | 82 | 1027.0 |
| 20260505015004 | 57 | 84 | 0.9 | 2.6 | 0.00 | 0.01 | 0.01 | 84 | 1027.0 |
| 20260505014024 | 56 | 138 | 1.7 | 3.5 | 0.00 | 0.01 | 0.01 | 86 | 1027.1 |